Dewpoint
53 53 53 53 52 53 53 54 54 54 54 55 55 55 55 56 56 56 57 57 58 58 58 59 60 60 60 60 61 60 59 47 41 34 33 40 57 64 65 66 66 66 60 35 26 24 19 20 19 21 28 27 32 32 34 35 34 37 22 22 19 23 21 25 20 19 23 16 16 19 19 17 17 20 23 25 23 25 26 26 27 29 30 31 34 40 41 49
53 53 52 52 53 53 53 53 54 54 54 54 55 55 55 55 56 56 56 57 57 58 58 59 60 60 60 60 60 60 56 43 33 38 42 56 60 63 65 66 66 64 59 33 22 21 17 18 21 24 24 20 35 27 33 31 32 27 25 20 13 22 23 22 20 18 17 18 15 19 20 19 17 19 23 19 20 21 20 22 25 24 27 31 34 39 40 51
52 52 52 51 52 52 52 53 54 54 53 54 54 54 54 55 55 55 56 56 57 58 58 59 59 60 60 60 60 58 52 36 24 25 39 54 60 64 64 65 65 62 41 31 28 22 18 18 22 22 25 20 26 23 31 24 31 25 27 13 13 29 20 23 20 19 21 20 17 19 20 20 20 20 24 19 19 22 18 17 22 22 22 25 34 40 42 50
52 52 51 51 52 51 52 53 53 53 53 53 53 54 54 54 55 55 56 56 57 58 58 59 59 60 59 60 59 58 48 28 14 22 42 56 62 63 64 63 63 55 35 29 28 27 24 23 23 23 26 21 26 30 21 24 28 26 19 8 18 20 20 21 23 20 20 21 19 19 20 19 21 21 22 19 17 18 18 19 17 18 19 21 36 39 44 48
52 52 51 52 51 51 51 52 52 52 52 52 52 53 53 54 54 55 55 56 57 57 58 59 59 60 60 60 57 55 46 7 16 32 47 59 61 63 63 61 55 41 32 26 24 24 22 21 24 27 25 18 25 22 21 24 27 25 19 21 21 22 21 22 22 23 22 22 20 20 18 18 22 22 22 20 15 13 14 18 21 19 22 24 34 39 44 48
52 52 52 51 52 52 51 52 52 52 52 52 53 53 53 54 54 55 55 56 56 57 58 59 59 59 59 59 56 46 29 -2 30 42 57 59 61 60 61 58 50 33 30 27 25 25 23 21 22 22 19 18 20 14 22 23 26 12 21 21 23 21 21 23 23 24 22 21 19 19 19 21 20 20 22 21 18 16 21 25 26 25 25 28 35 40 43 47
52 52 52 51 52 51 52 51 52 53 53 53 53 53 54 54 54 55 55 55 56 57 58 59 59 59 59 57 47 36 20 22 36 47 57 59 59 56 58 50 44 32 29 28 25 25 27 22 23 24 22 22 21 22 23 23 25 22 16 21 22 22 21 23 23 24 22 20 20 21 21 19 20 18 22 21 21 21 23 27 31 32 30 30 35 40 40 44
52 52 53 51 50 50 52 51 52 53 52 53 53 53 54 54 54 55 55 55 56 57 58 58 59 58 57 51 42 21 25 20 36 48 56 57 46 42 55 43 37 43 30 28 26 23 27 21 18 25 19 15 21 22 24 23 22 18 19 22 23 24 24 25 23 22 22 21 22 22 19 19 21 21 22 20 20 21 23 32 34 33 31 31 33 37 39 42
52 51 52 52 50 52 49 51 52 52 52 53 53 54 54 55 54 55 55 55 56 57 57 58 58 58 55 41 28 15 17 31 43 47 51 48 42 41 50 35 36 32 33 33 29 27 27 23 24 24 16 21 22 22 23 20 17 24 23 23 23 24 25 23 23 22 23 23 22 20 19 21 23 24 21 21 20 24 31 29 34 34 31 31 32 35 38 40
52 51 50 51 52 50 51 51 52 53 52 53 53 54 54 54 54 55 55 56 56 56 57 58 58 56 41 41 29 5 26 49 52 49 46 45 38 39 41 44 35 32 30 30 29 27 26 23 25 24 24 23 24 23 25 24 17 24 24 24 24 25 25 26 23 23 24 25 23 20 20 21 23 22 17 23 28 29 30 29 34 33 30 31 33 35 38 39
52 51 52 52 51 52 51 52 52 52 51 52 53 53 54 54 55 55 55 56 56 56 57 58 57 50 45 27 9 4 41 52 49 45 44 44 39 38 42 43 40 32 31 34 33 32 28 27 33 27 30 20 24 23 24 23 25 25 24 25 25 25 25 25 25 24 25 23 24 21 21 23 22 24 20 24 30 32 28 29 31 33 32 32 34 35 38 39
52 52 52 52 51 52 51 51 51 51 52 52 53 53 53 54 54 55 55 56 57 57 57 57 57 44 27 19 9 23 27 48 46 42 45 45 43 45 46 42 40 43 35 29 36 40 39 30 33 24 16 26 21 24 24 25 25 25 25 20 24 24 23 24 24 25 26 23 24 22 22 22 23 21 23 26 29 30 30 28 30 31 32 35 36 36 38 39
53 52 52 52 52 52 51 52 51 52 52 53 53 53 53 54 54 55 56 56 57 57 58 58 57 48 32 10 20 37 38 43 46 42 40 43 43 41 41 42 40 36 38 31 35 42 38 36 32 23 27 24 25 22 25 27 26 26 25 24 22 21 20 25 26 24 24 24 24 24 18 17 21 23 24 28 27 29 26 27 28 29 31 33 35 35 36 38
54 53 53 53 52 52 52 52 52 52 53 53 53 53 54 54 55 55 56 56 57 58 58 57 55 38 17 16 39 42 45 48 46 41 44 45 37 41 40 41 40 38 44 37 40 40 40 34 30 27 30 25 22 30 26 26 26 23 24 24 25 21 17 25 26 24 23 24 24 23 21 16 20 21 25 27 26 25 24 24 25 27 29 31 35 35 35 36
54 54 54 54 53 53 53 53 53 53 53 53 53 54 54 55 55 56 56 57 57 58 58 56 49 29 12 14 29 43 55 48 42 44 45 38 35 37 34 36 36 36 35 38 39 38 35 40 33 27 25 28 29 26 23 25 24 22 17 19 26 18 18 22 26 24 22 23 24 23 23 20 19 21 25 27 27 27 25 24 24 26 27 29 31 32 33 34
55 55 55 55 55 54 54 54 54 55 54 53 54 54 55 55 56 56 57 57 58 55 56 55 41 31 11 9 39 54 43 39 40 46 46 43 44 36 40 37 37 34 34 32 35 34 34 33 28 27 26 26 25 23 23 23 25 25 20 25 21 25 22 17 25 25 25 23 24 23 18 19 17 21 26 28 27 27 25 25 26 26 26 27 27 30 31 33
56 55 55 56 55 55 55 55 55 55 54 54 54 54 55 56 56 57 57 57 55 53 54 30 29 30 8 24 36 32 38 44 45 45 44 40 42 37 37 37 32 31 34 34 37 37 32 29 31 32 30 25 26 27 19 21 20 21 26 17 29 18 19 12 24 25 28 23 22 23 21 20 19 22 24 26 27 27 25 24 24 26 27 27 29 29 29 30
56 56 56 56 56 56 56 55 56 56 54 54 54 55 56 56 57 54 55 55 54 51 45 39 41 26 14 24 24 24 43 44 45 42 43 38 39 35 36 30 33 35 35 30 32 28 32 29 32 26 27 27 25 23 17 10 17 15 21 22 20 23 23 19 19 23 23 22 22 22 22 22 22 22 23 23 27 25 25 24 24 24 25 27 28 28 28 30
56 56 56 56 56 56 56 56 56 55 54 54 54 55 55 56 54 52 43 42 22 20 16 21 10 8 15 15 38 43 46 44 45 44 35 39 40 37 36 35 39 28 32 28 27 28 31 33 34 27 23 25 22 19 14 17 15 13 19 18 21 16 20 18 21 25 24 22 22 22 22 20 21 22 23 23 24 25 24 25 25 25 26 26 27 29 30 32
57 56 56 56 56 56 56 56 55 54 54 53 53 46 43 38 38 31 34 36 25 20 24 22 21 27 32 32 40 44 45 45 38 41 43 41 38 34 32 33 41 32 25 23 32 31 34 27 25 26 21 23 24 23 19 20 22 25 28 28 20 21 19 23 24 26 26 23 22 22 22 22 22 23 23 24 25 27 26 25 26 27 28 28 29 28 30 31
57 57 57 56 56 56 56 56 55 56 54 53 50 30 9 25 13 5 22 27 37 29 34 31 30 26 31 37 44 41 35 36 40 41 42 43 37 30 27 31 29 26 31 32 33 30 30 24 26 23 23 24 25 24 23 24 25 21 23 24 21 28 16 23 24 26 26 24 20 24 24 25 23 23 24 25 25 24 24 25 26 26 27 28 30 31 33 31
57 57 57 57 56 56 56 56 55 54 53 53 46 25 42 26 33 40 31 14 33 40 40 38 39 33 38 39 43 43 39 35 38 40 44 40 33 27 28 29 25 20 33 33 29 29 26 23 20 26 25 26 26 24 24 23 25 27 22 26 24 20 28 25 24 26 26 25 21 22 23 22 23 23 24 24 24 25 25 26 25 25 28 28 29 30 31 33
57 57 57 57 56 57 56 55 55 55 53 50 48 45 50 51 51 50 40 27 25 36 39 37 27 30 35 36 38 40 32 27 27 39 40 39 32 31 30 25 24 29 30 26 22 29 25 25 25 26 26 25 26 25 25 27 28 28 27 23 18 29 21 10 26 27 26 23 24 26 26 25 24 25 26 26 25 26 27 28 29 30 29 28 28 29 32 32
58 57 57 57 57 56 56 55 55 53 51 48 48 48 49 52 50 45 37 18 19 23 34 36 31 31 31 25 37 36 30 28 28 34 43 35 28 35 28 26 27 28 24 25 20 22 17 27 29 26 27 24 25 26 26 25 22 32 30 27 23 27 24 18 17 26 26 26 29 26 26 25 26 24 24 27 29 29 29 29 30 31 34 33 35 37 35 31
58 57 57 57 57 57 55 55 52 51 51 49 50 50 50 52 51 49 30 15 19 20 37 32 39 38 31 44 42 33 34 33 33 36 44 36 30 29 26 30 26 24 26 28 26 27 23 26 29 26 29 29 31 25 29 29 21 27 32 28 24 25 21 26 28 24 22 25 28 30 13 15 26 26 26 26 26 25 27 29 30 31 32 34 32 32 34 37
58 57 57 57 57 56 56 52 51 51 49 50 48 50 51 50 50 48 26 16 14 22 25 22 36 22 41 36 41 38 28 20 35 38 39 40 41 29 29 26 27 22 27 29 24 28 25 29 33 30 30 32 30 27 33 31 21 25 20 31 26 26 29 29 28 26 18 17 29 30 16 14 19 15 16 25 25 24 24 29 26 27 30 32 34 34 34 35
58 57 57 57 57 56 52 51 52 50 44 42 49 51 51 51 51 50 15 21 12 30 22 32 25 27 40 35 37 21 15 22 40 40 38 43 32 38 24 26 26 29 30 28 23 21 29 28 30 34 31 32 29 23 30 27 25 19 34 33 31 29 29 30 29 28 23 31 33 29 26 21 21 21 22 18 17 18 22 23 26 29 29 30 30 32 34 36
58 58 57 57 57 55 52 51 50 48 41 48 51 51 51 52 50 41 20 13 14 33 29 27 31 39 36 36 37 15 25 33 29 35 39 41 38 30 25 27 23 27 29 26 18 31 29 33 32 31 32 29 25 29 35 30 23 26 33 34 32 29 32 32 29 28 29 25 22 27 33 19 18 26 26 26 22 21 21 18 20 24 30 29 32 33 35 35
57 57 57 57 56 55 52 51 49 47 49 51 51 50 51 48 42 27 20 12 30 23 39 25 39 35 36 33 27 29 29 35 24 35 43 38 39 33 24 27 26 28 29 26 20 29 26 35 32 32 30 25 32 31 32 31 24 30 33 34 33 34 33 32 28 29 27 22 20 27 28 17 14 16 19 27 26 22 16 15 19 26 28 33 35 36 36 35
57 57 57 57 56 55 53 53 52 52 52 52 52 51 48 43 31 23 15 15 32 21 30 31 31 28 32 26 23 29 25 32 36 36 35 33 34 33 30 32 27 29 31 28 31 31 30 34 38 30 29 32 32 32 34 34 34 34 36 33 32 32 31 30 30 28 26 21 23 26 27 16 11 17 20 24 24 19 17 19 19 27 33 33 36 36 38 36
57 57 57 56 54 54 53 50 51 53 53 53 52 50 44 37 25 21 19 22 31 32 30 30 28 34 28 25 23 27 31 32 35 35 33 34 32 30 29 27 31 32 29 30 30 34 32 33 33 35 34 34 33 34 35 35 35 36 33 31 30 28 29 29 28 27 22 17 24 25 28 25 13 13 24 20 23 23 22 16 14 19 25 36 39 36 35 34
55 56 57 57 57 55 52 51 52 53 52 52 51 46 38 25 31 21 19 20 18 28 29 29 34 33 27 31 30 27 25 34 35 34 31 32 32 28 27 22 28 23 23 23 24 32 29 31 34 35 36 32 37 31 32 35 34 33 31 28 18 17 18 18 25 21 21 16 26 24 27 24 21 13 20 21 21 21 23 24 23 26 26 30 33 37 37 38
54 56 56 57 54 54 54 54 53 53 53 52 50 50 34 27 20 25 24 22 18 32 26 35 33 30 31 29 28 31 33 26 33 34 36 36 33 32 34 29 31 27 15 25 26 23 26 35 34 35 34 34 34 24 29 27 31 31 26 25 19 13 14 13 18 17 14 19 20 21 27 22 21 23 23 21 21 22 22 27 30 30 29 31 34 37 36 39
53 55 55 56 56 55 55 53 53 54 52 49 44 37 33 26 22 32 27 26 30 33 33 34 32 32 31 25 30 30 24 30 34 33 34 34 33 31 30 33 31 30 25 23 20 22 16 15 26 32 27 36 33 23 29 27 30 29 34 27 23 17 17 14 11 9 12 17 19 21 24 23 25 15 24 25 26 29 29 28 32 33 34 35 36 36 35 37
53 54 55 56 56 56 54 54 53 54 51 47 40 34 27 27 30 29 28 31 35 34 33 34 32 31 30 32 34 31 31 26 35 34 33 32 30 31 30 28 33 29 32 17 25 25 22 20 29 33 37 35 33 35 37 34 33 33 35 31 24 21 21 7 17 16 15 16 20 22 20 21 20 26 28 29 29 29 30 30 32 31 32 34 35 35 37 35
53 53 55 53 54 55 54 54 54 53 49 44 36 30 29 32 31 39 36 35 34 34 32 32 33 29 30 30 33 31 33 29 32 33 33 33 34 31 33 32 31 29 23 17 27 18 19 16 33 34 35 32 32 35 33 30 19 28 29 26 26 30 20 20 22 21 22 18 15 23 18 19 20 16 19 22 24 24 27 27 28 30 32 34 35 37 35 36
51 52 50 52 53 55 54 54 54 52 49 42 34 30 33 37 39 41 41 33 32 34 32 26 29 27 29 26 30 30 30 35 34 32 28 34 29 32 33 33 35 31 26 21 25 31 21 22 30 32 29 33 34 35 37 36 34 30 26 27 32 34 32 21 13 22 18 13 17 21 18 11 13 12 24 24 23 21 24 24 24 28 32 31 35 38 38 38
49 49 50 50 53 55 54 54 53 51 46 40 33 35 37 35 42 40 41 35 33 34 31 28 31 31 30 27 27 30 32 26 29 32 29 29 25 33 32 30 33 31 29 30 21 27 25 17 29 34 34 35 36 35 31 36 37 30 29 39 23 21 21 21 19 15 15 17 17 19 17 18 19 15 19 18 23 22 22 25 25 25 27 31 33 35 36 38
48 48 42 47 54 54 53 54 52 48 43 36 33 34 37 39 44 40 38 36 37 35 31 32 30 32 32 28 30 30 31 26 32 29 26 30 25 32 29 30 33 32 30 28 22 27 29 19 23 33 33 34 34 32 26 29 35 35 34 30 34 26 25 23 19 24 16 13 17 19 18 12 24 19 19 16 17 21 19 25 25 26 28 30 33 37 37 38
45 42 41 48 55 54 54 53 48 46 40 33 33 36 42 38 39 42 40 37 37 38 36 36 35 31 32 31 32 29 32 31 31 31 28 32 27 30 29 30 30 33 30 29 28 35 22 22 16 31 34 33 28 30 27 30 28 27 28 26 28 29 30 27 24 22 16 14 12 12 12 14 17 19 20 15 16 19 22 25 31 32 31 32 33 35 37 36
46 42 43 52 54 54 53 49 43 39 39 41 41 38 40 38 39 39 39 37 38 40 37 38 38 34 35 31 28 32 32 31 32 30 30 28 27 26 32 30 33 32 33 33 30 30 26 21 18 30 29 27 28 35 34 32 29 28 26 26 26 26 24 21 20 25 24 18 18 15 15 18 20 20 19 17 18 24 28 29 31 33 31 35 38 36 35 38
42 33 37 51 54 53 49 41 41 43 41 38 37 39 38 42 40 40 38 37 37 36 40 37 37 36 38 37 36 34 33 31 32 31 33 29 30 28 33 31 30 34 30 29 29 33 29 30 24 27 29 29 33 33 34 34 37 36 30 28 30 27 25 22 18 24 25 24 25 23 18 18 28 26 24 22 23 23 28 30 31 33 34 33 36 37 37 37
40 34 49 53 54 51 46 40 41 40 39 40 42 41 42 40 38 40 38 39 37 37 36 36 36 34 35 36 35 35 35 34 34 31 33 34 33 31 36 30 36 36 34 31 32 32 32 27 23 24 35 35 35 35 35 34 34 32 32 33 30 27 27 25 22 26 23 25 21 22 20 21 25 31 28 28 30 32 31 30 32 32 32 33 34 36 38 38
40 39 42 50 53 52 43 34 35 37 39 40 40 40 41 40 40 38 37 38 36 37 35 35 35 34 35 36 34 33 35 31 34 33 32 35 32 38 36 37 33 33 30 29 27 33 27 30 27 22 22 28 29 31 32 34 33 31 29 32 32 32 32 32 30 28 23 26 24 21 19 21 26 30 31 29 28 28 28 29 31 32 33 35 33 34 36 35
42 43 43 46 49 47 39 38 36 38 38 38 38 38 39 39 41 38 37 37 39 38 38 34 35 38 37 36 34 35 36 34 31 36 34 36 34 37 37 40 36 32 33 41 36 35 30 30 27 22 21 19 19 21 23 28 29 31 32 34 34 32 32 27 24 25 22 25 26 22 20 19 20 31 27 28 29 27 28 29 29 32 33 32 36 38 36 35
37 27 36 40 45 44 41 40 40 38 35 37 36 37 38 37 41 42 40 39 38 39 35 40 40 37 37 37 36 34 34 36 33 33 35 34 35 35 36 39 37 35 35 37 36 33 30 32 28 26 24 22 24 25 34 35 31 29 31 33 33 34 32 30 28 25 23 25 24 26 25 22 21 21 24 29 29 27 28 29 29 31 31 34 33 34 35 35
40 30 34 30 39 39 38 40 38 39 37 36 33 36 35 36 38 39 42 39 39 38 38 37 38 35 36 35 34 33 34 34 36 34 35 34 35 36 37 38 39 38 36 35 36 33 32 28 31 30 30 29 28 29 33 34 31 31 30 31 34 34 32 31 27 25 28 27 23 27 28 27 25 24 24 25 30 30 31 30 30 31 34 37 36 34 34 32
32 34 35 38 31 28 32 33 37 37 38 39 36 35 34 34 35 36 40 39 40 38 38 40 37 36 36 35 35 33 34 34 35 33 35 38 35 39 36 37 35 36 37 39 40 32 31 27 31 31 30 30 30 29 31 33 31 32 32 32 33 33 32 30 30 30 29 27 23 27 28 28 26 26 27 26 27 26 26 29 31 31 32 32 32 32 34 34
38 38 38 39 35 36 33 36 36 36 36 37 37 37 34 34 33 35 37 38 39 38 38 34 35 36 36 37 36 34 35 32 32 35 33 34 35 36 35 35 37 38 38 36 37 36 33 29 31 32 31 30 30 31 31 33 29 28 31 32 33 34 33 32 32 32 31 29 30 29 29 28 27 27 27 27 29 30 27 31 32 32 30 33 34 34 33 34
34 34 33 39 37 36 36 37 36 35 33 36 33 34 35 36 35 36 38 38 36 37 39 36 35 37 37 37 37 35 35 35 34 33 35 35 33 36 33 34 34 33 35 32 36 34 32 29 33 32 31 30 32 32 32 31 31 29 30 33 33 33 33 33 33 33 32 31 31 30 30 28 29 28 29 30 29 33 32 29 29 32 34 33 33 34 35 34
41 39 40 35 33 35 35 35 35 34 32 34 32 32 33 34 34 36 36 40 38 37 38 36 36 37 37 37 37 36 37 36 36 36 37 37 33 36 34 35 36 33 34 33 35 34 34 31 34 32 30 30 32 33 32 32 32 31 30 30 31 31 31 32 29 32 31 30 31 31 30 29 29 30 30 29 30 33 31 32 32 32 31 31 33 33 34 35
42 42 42 39 29 32 33 35 35 34 29 32 32 30 31 32 35 36 34 38 39 40 40 40 38 37 36 37 36 37 38 38 37 38 37 37 37 38 37 38 38 38 33 34 34 32 33 32 31 30 29 29 32 34 33 33 31 30 30 30 30 30 30 31 31 32 31 32 29 29 29 30 30 31 29 29 30 32 32 31 33 34 33 33 33 33 33 32